Regional Weather Roundup
Issued by NWS

Home | Current Version | Previous Version | Graphics & Text | Print | Product List | Glossary Off
Versions: 1 2 3 4 5 6 7 8 9 10 11 12 13 14 15 16 17 18 19 20 21 22 23 24 25 26 27 28 29 30 31 32 33 34 35 36 37 38 39 40 41 42 43 44 45 46 47 48 49 50

000
ASUS43 KMPX 070501
RWRMN
WEATHER ROUNDUP FOR MINNESOTA
NATIONAL WEATHER SERVICE TWIN CITIES/CHANHASSEN MN
1100 PM CST SAT FEB 06 2016


NOTE: "FAIR" INDICATES FEW OR NO CLOUDS BELOW 12,000 FEET WITH NO
SIGNIFICANT WEATHER AND/OR OBSTRUCTIONS TO VISIBILITY. N/A MEANS
CURRENT SKY AND/OR WEATHER CONDITIONS ARE NOT AVAILABLE.

MNZ060>063-068>070-070600-
   Twin Cities Metro

CITY           SKY/WX    TMP DP  RH WIND       PRES   REMARKS
TWIN CITIES    CLOUDY    35  28  75 S9        29.76F WCI  28
ST PAUL        CLOUDY    34  29  82 SE6       29.77F WCI  29
CRYSTAL        CLOUDY    35  28  75 S12       29.71F WCI  27
BLAINE         PTCLDY    36  30  80 S15G21    29.70F
LAKEVILLE      CLOUDY    34  28  80 SW6       29.77F WCI  29
EDEN PRAIRIE   CLOUDY    35  28  75 S14       29.73F WCI  26
SOUTH ST PAUL  CLOUDY    35  29  78 S8        29.77F WCI  29
LAKE ELMO      CLOUDY    34  32  93 S13       29.77F WCI  25
$$
MNZ001>005-007-008-013>017-022>024-027-028-070600-
   Northwest Minnesota

CITY           SKY/WX    TMP DP  RH WIND       PRES   REMARKS
BEMIDJI        CLOUDY    35  32  89 S6        29.52F WCI  30
HALLOCK        PTCLDY    36  30  80 W16       29.40F
ROSEAU         CLOUDY    39  34  81 SW12      29.40F
WARROAD        CLOUDY    37  34  87 SW8       29.41F
THIEF RVR FALL PTCLDY    36  30  80 SW13      29.48F
CROOKSTON      CLOUDY    36  32  87 SW12      29.50S
FOSSTON        PTCLDY    32  30  93 S14       29.52F WCI  22
DETROIT LAKES  CLEAR     36  34  93 SW12      29.57F
MOORHEAD       MOCLDY    36  32  87 SW16      29.58S
PARK RAPIDS    CLEAR     36  32  85 SW9       29.56F
MAHNOMEN       FAIR      34  32  94 SW13      29.54F WCI  25
$$
MNZ006-009>011-018-025>026-070600-
   North Central Minnesota

CITY           SKY/WX    TMP DP  RH WIND       PRES   REMARKS
BAUDETTE       CLOUDY    35  29  78 SW8       29.43F WCI  29
FLAG ISLAND    CLOUDY    32  28  86 SE8       29.41F WCI  25
INTL FALLS     LGT SNOW  32  30  92 S6        29.48F FOG     WCI  26
WASKISH        CLOUDY    36  34  93 S8        29.47F
LONGVILLE      CLOUDY    36  32  87 S3        29.56F
GRAND RAPIDS   CLOUDY    34  28  80 S9        29.56F WCI  26
ORR            LGT SNOW  30  28  93 S8        29.52F WCI  23
COOK           LGT SNOW  30  30 100 S3        29.56F VSB 1
WALKER         MOCLDY    35  32  88 SW8       29.54F WCI  29
$$
MNZ012-019>021-037-070600-
   Northeast Minnesota

CITY           SKY/WX    TMP DP  RH WIND       PRES   REMARKS
DULUTH         LGT SNOW  31  28  89 SW14      29.62F FOG     WCI  21
ELY            LGT SNOW  30  28  93 S8        29.58F WCI  23
HIBBING        LGT SNOW  30  29  96 S6        29.58F FOG     WCI  24
EVELETH        LGT SNOW  32  32 100 S8        29.60F WCI  25
DULUTH HARBOR  MIX PCPN  34  30  86 SW12      29.67F WCI  25
TWO HARBORS    LGT SNOW  34  28  80 S3        29.63F
SILVER BAY     LGT SNOW  32  30  93 S9        29.63F WCI  24
GRAND MARAIS     N/A     33  31  92 S13       29.69F WCI  24
G MARAIS ARPRT LGT SNOW  27  25  93 SE7       29.63F WCI  19
$$
MNZ029>031-032-039>041-046>048-054>057-064-070600-
   West Central Minnesota

CITY           SKY/WX    TMP DP  RH WIND       PRES   REMARKS
FERGUS FALLS   PTCLDY    34  34 100 SW6       29.64F WCI  29
WHEATON        CLOUDY    37  34  87 SW12      29.66F
MORRIS         LGT RAIN  36  32  87 W8        29.68S
ALEXANDRIA     CLOUDY    34  30  85 SW16      29.69R WCI  24
ELBOW LAKE     CLOUDY    34  32  93 W10       29.64F FOG     WCI  26
WADENA         PTCLDY    34  32  93 SW9       29.59F WCI  26
GLENWOOD       CLOUDY    34  30  86 SW18      29.68R WCI  23
APPLETON       CLOUDY    37  30  75 SW3       29.69F
BENSON         MIX PCPN  36  30  80 SW6       29.69F
ORTONVILLE     CLOUDY    37  30  75 W8        29.68F
MADISON          N/A     39  30  70 SW14      29.69F
WILLMAR        FAIR      36  32  87 SW15      29.74R
$$
MNZ033>034-036-042>043-049>051-058-059-070600-
   Central Minnesota

CITY           SKY/WX    TMP DP  RH WIND       PRES   REMARKS
ST CLOUD       CLOUDY    33  29  85 S12       29.68F WCI  24
SAUK CENTRE    FAIR      33  30  89 SW6       29.67S WCI  28
PAYNESVILLE    CLOUDY    33  30  87 SW6       29.69F WCI  28
AITKIN         CLOUDY    37  30  75 S8        29.60F
PINE RIVER     CLOUDY    36  32  87 S6        29.63F
BRAINERD       CLOUDY    34  31  88 S14       29.62F WCI  25
STAPLES        PTCLDY    34  30  86 SW8       29.60F WCI  27
LONG PRAIRIE   FAIR      32  30  93 S6        29.65F WCI  26
LITTLE FALLS   PTCLDY    34  30  86 S7        29.66S WCI  28
LITCHFIELD     CLOUDY    36  30  80 S5        29.71S
BUFFALO        CLOUDY    34  28  79 S7        29.71F WCI  28
MAPLE LAKE     CLOUDY    35  31  85 S6        29.71S WCI  30
$$
MNZ037-044-045-052-053-070600-
   East Central Minnesota

CITY           SKY/WX    TMP DP  RH WIND       PRES   REMARKS
PRINCETON      CLOUDY    36  30  80 S8        29.70R
MORA           CLOUDY    32  30  93 S10       29.69F WCI  24
CAMBRIDGE      CLOUDY    36  27  69 CALM      29.69F
RUSH CITY      CLOUDY    33  30  87 S9        29.68F WCI  25
MOOSE LAKE     CLOUDY    32  30  93 S9        29.64F WCI  24
HINCKLEY       CLOUDY    34  32  93 S12       29.68F WCI  25
CLOQUET        FLURRIES  32  28  86 S10       29.63S WCI  24
MCGREGOR       CLOUDY    34  32  93 S8        29.62F WCI  27
$$
MNZ071>073-080-081-089-090-097-098-070600-
   Southwest Minnesota

CITY           SKY/WX    TMP DP  RH WIND       PRES   REMARKS
MONTEVIDEO     CLOUDY    36  34  93 SW6       29.72F
GRANITE FALLS  CLOUDY    37  32  82 S12       29.74S
CANBY          MOCLDY    42  33  72 SW16      29.73F
MARSHALL       CLOUDY    36  29  75 SW22      29.72F
REDWOOD FALLS  CLOUDY    36  29  75 SW14      29.74S
OLIVIA         CLOUDY    34  32  93 SW12      29.73S WCI  25
PIPESTONE      PTCLDY    34  25  69 SW10      29.77F WCI  26
WINDOM         CLOUDY    34  28  80 SW13      29.75F WCI  25
WORTHINGTON    CLOUDY    30  25  80 SW18      29.79F WCI  18
JACKSON        CLOUDY    32  27  80 SW14      29.79F WCI  22
TRACY          PTCLDY    35  30  80 SW18G25   29.75S WCI  24
SLAYTON        PTCLDY    32  29  91 SW18      29.77S WCI  20
$$
MNZ065>067-074>077-082>085-091>093-070600-
   South Central Minnesota

CITY           SKY/WX    TMP DP  RH WIND       PRES   REMARKS
MANKATO        MOCLDY    32  27  80 S13       29.76F WCI  22
NEW ULM        CLOUDY    34  28  80 S10       29.74F WCI  26
ST JAMES       CLOUDY    36  30  80 SW15      29.77F
FAIRMONT       CLOUDY    34  25  69 SW15      29.79F WCI  24
GLENCOE        MOCLDY    35  31  87 S9        29.72F WCI  27
FARIBAULT      CLOUDY    34  28  80 S13       29.81S WCI  25
OWATONNA       CLOUDY    34  27  75 S18       29.82F WCI  23
WASECA         CLOUDY    32  28  86 S17       29.82F WCI  21
ALBERT LEA     CLOUDY    34  28  80 SW13G18   29.82S WCI  25
$$
MNZ078>079-086>088-094>096-070600-
   Southeast Minnesota

CITY           SKY/WX    TMP DP  RH WIND       PRES   REMARKS
ROCHESTER      CLOUDY    31  28  89 SW20      29.83F WCI  19
RED WING       CLOUDY    34  28  80 S9        29.80F WCI  26
STANTON        CLOUDY    35  28  76 S16G28    29.77F WCI  25
DODGE CENTER   CLOUDY    30  28  93 SW22      29.81F WCI  17
WINONA         CLOUDY    34  28  80 S8        29.86F WCI  27
AUSTIN         CLOUDY    30  28  93 SW9       29.84S WCI  22
PRESTON        CLOUDY    30  27  90 S18G25    29.84F WCI  18
$$
ABBREVIATIONS USED IN REMARKS
   TC - TEMPERATURES IN CELSIUS
  WCI - WIND CHILL INDEX
   HX - HEAT INDEX
  VSB - VISIBILITY
$$



USA.gov is the U.S. government's official web portal to all federal, state and local government web resources and services.